User: anonymous   Login
Location: ?
(35.4064°N, 139.3593°E)
Time: 08:11:44
(UTC+00:00)
Language:

Cosmos 2263 Rocket - Orbit

View from above orbital plane
View from above orbital plane
View from above satellite
View from above satellite

Ground track
Ground track

The orbit data is extracted from the following two-line orbital elements,

1 22803U 93059B   24169.64496143  .00000283  00000-0  16421-3 0  9990
2 22803  70.9905 259.5928 0015029  90.4955 269.7890 14.17035051590277
Epoch (UTC): 17 June 2024 15:28:44
Eccentricity: 0.0015029
inclination: 70.9905°
perigee height: 824 km
apogee height: 846 km
right ascension of ascending node: 259.5928°
argument of perigee: 90.4955°
revolutions per day: 14.17035051
mean anomaly at epoch: 269.7890°
orbit number at epoch: 59027

The dashed part of the orbit path shows where the satellite is in the earth's shadow,  

DLR